Location: Leipzig
(51.3392°N, 12.3528°E)
Time: 17:58:48
(UTC+02:00)

ISS - Pass Details

Date: 04 January 2018
Orbit: 401 x 409 km, 51.6° (Epoch: 19 August)

Event Time Altitude Azimuth Distance (km) Brightness Sun altitude
Exits shadow 06:57:46 17° 274° (W) 1,160 -2.1 -11.3°
Maximum altitude 07:00:18 83° 2° (N) 433 -3.8 -10.9°
Drops below altitude 10° 07:03:43 10° 91° (E) 1,519 0.3 -10.4°
Sets 07:05:50 0° 92° (E) 2,386 1.5 -10.1°
